Regional Weather Roundup
Issued by NWS

Home | Current Version | Previous Version | Text Only | Print | Product List | Glossary Off
Versions: 1 2 3 4 5 6 7 8 9 10 11 12 13 14 15 16 17 18 19 20 21 22 23 24 25 26 27 28 29 30 31 32 33 34 35 36 37 38 39 40 41 42 43 44 45 46 47 48 49 50

000
ASUS43 KIND 280159
RWRIN

WEATHER ROUNDUP FOR INDIANA
NATIONAL WEATHER SERVICE INDIANAPOLIS IN
1000 PM EDT WED JUL 27 2016

NOTE: "FAIR" INDICATES FEW OR NO CLOUDS BELOW 12,000 FEET WITH NO
SIGNIFICANT WEATHER AND/OR OBSTRUCTIONS TO VISIBILITY.

* - STATION DOES NOT REPORT WEATHER SUCH AS PRECIPITATION OR FOG.

+ - STATION NOT QUALITY CONTROLLED BY THE NATIONAL WEATHER SERVICE.
    USE DATA WITH CAUTION...ESPECIALLY DEWPOINT AND RELATIVE
    HUMIDITY OBSERVATIONS.

INZ001>003-010>013-019-020-280300-
NORTHWEST INDIANA

CITY           SKY/WX    TMP DP  RH WIND       PRES   REMARKS
GARY /AIRPORT/ PTCLDY    75  72  88 CALM      29.93R
KNOX *+        CLEAR     73  64  73 S3        29.94R
MONTICELLO +   CLEAR     74  67  80 CALM      29.94R
RENSSELAER +   CLEAR     72  70  94 CALM      29.95R

$$

LMZ046-743>745-280300-
SOUTHERN LAKE MICHIGAN

STATION/POSITION TIME  TEMP    WIND        PRES    WAVE
                       AIR SEA DIR/SP/G            HT
                 (UTC) (F)     (DEG/KT/KT) (MB)    (FT)
BURNS HARBOR     0100   82     110/  9/ 15 1013.5S
MICHIGAN CITY    0100   81     100/  4/  6   N/A
5NW MICH CITY    0100   78 77  100/  4/  6   N/A     1

$$

INZ004-005-014>016-021>024-280300-
NORTH CENTRAL INDIANA

CITY           SKY/WX    TMP DP  RH WIND       PRES   REMARKS
GOSHEN         CLEAR     75  66  73 N3        29.95R
SOUTH BEND     CLEAR     73  66  78 N5        29.95R

$$

INZ006>009-017-018-025>027-280300-
NORTHEAST INDIANA

CITY           SKY/WX    TMP DP  RH WIND       PRES   REMARKS
ANGOLA *+      CLEAR     73  66  78 CALM      29.95R
FORT WAYNE     PTCLDY    76  64  66 NW5       29.95R

$$

INZ028-029-035-036-043>045-051>053-280300-
WEST CENTRAL INDIANA

CITY           SKY/WX    TMP DP  RH WIND       PRES   REMARKS
CRAWFORDSVL +  CLOUDY    71  71 100 CALM      29.95S
GREENCASTLE +  CLOUDY    73  73 100 CALM      29.96R
LAFAYETTE      PTCLDY    74  70  87 NW3       29.94R
TERRE HAUTE    MOCLDY    77  73  87 N5        29.94R

$$

INZ030>032-037>040-046>048-054>057-064-065-280300-
CENTRAL INDIANA

CITY           SKY/WX    TMP DP  RH WIND       PRES   REMARKS
COLUMBUS       PTCLDY    77  75  94 CALM      29.94S
INDIANAPOLIS   CLOUDY    81  66  60 NW6       29.95R
-EAGLE CREEK   PTCLDY    81  68  64 N5        29.94R
KOKOMO *+      PTCLDY    72  64  78 CALM      29.95R
SHELBYVILLE    CLOUDY    79  72  79 CALM      29.94R

$$

INZ033-034-041-042-049-050-058-059-280300-
EAST CENTRAL INDIANA

CITY           SKY/WX    TMP DP  RH WIND       PRES   REMARKS
MUNCIE         PTCLDY    75  67  76 CALM      29.95R

$$

INZ060-061-067>069-081>083-085>088-280300-
SOUTHWEST INDIANA

CITY           SKY/WX    TMP DP  RH WIND       PRES   REMARKS
EVANSVILLE     CLOUDY    76  74  93 CALM      29.92F
HUNTINGBURG *+ CLOUDY    77  73  88 SW3       29.93F

$$

INZ062-063-066-070>080-084-089>092-280300-
SOUTH CENTRAL AND SOUTHEAST INDIANA

CITY           SKY/WX    TMP DP  RH WIND       PRES   REMARKS
BLOOMINGTON    CLOUDY    75  71  87 CALM      29.95R
MADISON *+     CLOUDY    79  72  78 CALM      29.98R
SEYMOUR +      CLOUDY    79  75  89 CALM      29.95R

$$





USA.gov is the U.S. government's official web portal to all federal, state and local government web resources and services.